Tracking 30306 objects as of 23-Apr-2025
HD Live streaming from Space Station
objects crossing your sky now

SL-14 DEB

Track SL-14 DEB now!
10-day predictions


NORAD ID: 19136
Int'l Code: 1978-100J
Perigee: 981.5 km
Apogee: 1,601.9 km
Inclination: 82.4 °
Period: 111.3 minutes
Semi major axis: 7662 km
RCS: 0.0158 m2 (small)
Launch date: October 26, 1978
Source: Commonwealth of Independent States (former USSR) (CIS)
Launch site: PLESETSK MISSILE AND SPACE COMPLEX (PKMTR)

Note: This is SATELLITE DEBRIS
Your satellite tracking list
Your tracking list is empty




NASA's NSSDC Master Catalog

Two Line Element Set (TLE):
1 19136U 78100J   25112.97101946  .00001220  00000-0  30030-2 0  9997
2 19136  82.4129 101.1240 0404830  32.5299  27.3601 12.94280590154106
Source of the keplerian elements: AFSPC